This is the latest recevied weather packets stored in our database for station/object N4MGC. If no packets are shown the sender has not sent any weather packets the latest 10 day(s).
| Time | Temp. | Humidity | Pressure | Rain* | Wind** | Luminosity | Snow |
|---|---|---|---|---|---|---|---|
| 1777663493 | 18.89° C | 57% | 1015.5 hPa | 0 mm | - | 225 W/m² | - |
| 1777663190 | 18.89° C | 56% | 1015.4 hPa | 0 mm | - | 203 W/m² | - |
| 1777662888 | 18.89° C | 58% | 1015.5 hPa | 0 mm | - | 190 W/m² | - |
| 1777662584 | 18.89° C | 58% | 1015.6 hPa | 0 mm | - | 188 W/m² | - |
| 1777662280 | 18.89° C | 59% | 1015.5 hPa | 0 mm | - | 196 W/m² | - |
| 1777661975 | 18.89° C | 56% | 1015.6 hPa | 0 mm | - | 202 W/m² | - |
| 1777661672 | 18.89° C | 54% | 1015.4 hPa | 0 mm | - | 208 W/m² | - |
| 1777661368 | 18.89° C | 53% | 1015.3 hPa | 0 mm | - | 212 W/m² | - |
| 1777661065 | 18.89° C | 55% | 1015.1 hPa | 0 mm | - | 218 W/m² | - |
| 1777660759 | 18.89° C | 55% | 1015.1 hPa | 0 mm | - | 231 W/m² | - |
| 1777660457 | 19.44° C | 54% | 1015.1 hPa | 0 mm | - | 270 W/m² | - |
| 1777660153 | 19.44° C | 58% | 1014.9 hPa | 0 mm | - | 321 W/m² | - |
| 1777659850 | 20° C | 56% | 1014.9 hPa | 0 mm | - | 380 W/m² | - |
| 1777659546 | 20° C | 55% | 1014.8 hPa | 0 mm | - | 429 W/m² | - |
| 1777659244 | 20° C | 56% | 1014.8 hPa | 0 mm | - | 495 W/m² | - |
| 1777658941 | 19.44° C | 59% | 1014.7 hPa | 0 mm | - | 403 W/m² | - |
| 1777658637 | 19.44° C | 59% | 1014.8 hPa | 0 mm | - | 486 W/m² | - |
| 1777658334 | 19.44° C | 59% | 1014.8 hPa | 0 mm | - | 538 W/m² | - |
| 1777658031 | 19.44° C | 58% | 1014.8 hPa | 0 mm | - | 560 W/m² | - |
| 1777657728 | 19.44° C | 62% | 1015 hPa | 0 mm | - | 538 W/m² | - |
| 1777657425 | 18.89° C | 59% | 1014.8 hPa | 0 mm | - | 586 W/m² | - |
| 1777657123 | 18.33° C | 63% | 1015.2 hPa | 0 mm | - | 502 W/m² | - |
| 1777656820 | 18.33° C | 65% | 1015.1 hPa | 0 mm | - | 476 W/m² | - |
| 1777656516 | 17.78° C | 67% | 1015.5 hPa | 0 mm | - | 477 W/m² | - |
| 1777656211 | 17.78° C | 67% | 1015.8 hPa | 0 mm | - | 448 W/m² | - |
* Rain latest hour (hover to see other rain measurements)
** Current wind speed in m/s (hover to see current wind gust speed)